Regional Weather Roundup
Issued by NWS Albany, NY

Home | Current Version | Previous Version | Text Only | Print | Product List | Glossary On
Versions: 1 2 3 4 5 6 7 8 9 10 11 12 13 14 15 16 17 18 19 20 21 22 23 24 25 26 27 28 29 30 31 32 33 34 35 36 37 38 39 40 41 42 43 44 45 46 47 48 49 50
000
ASUS41 KALY 301110
RWRALY

NEW YORK STATE HOURLY WEATHER ROUNDUP
NATIONAL WEATHER SERVICE ALBANY NY
700 AM EDT SAT MAY 30 2015

NOTE: "FAIR" INDICATES FEW OR NO CLOUDS BELOW 12,000 FEET WITH NO
SIGNIFICANT WEATHER AND/OR NO OBSTRUCTIONS TO VISIBILITY.

NYZ032-033-038>043-046>054-057>066-NYZ062>081-301200-
EAST


CITY           SKY/WX    TMP DP  RH WIND       PRES   REMARKS
ALBANY         MOSUNNY   68  57  68 S16       30.14S
GLENS FALLS    MOSUNNY   66  58  75 SW7       30.13S
POUGHKEEPSIE   CLOUDY    67  61  81 SE6       30.18S
MONTGOMERY     CLOUDY    64  61  90 CALM      30.19S
WHITE PLAINS   SUNNY     63  62  97 SE5       30.21S FOG
ISLIP          FOG       65  64  97 SW8       30.22R VSB 1
NEW YORK CITY  MOSUNNY   68  62  81 S7        30.21R
CENTRAL PARK   SUNNY     69  64  84 VRB7      30.23S
$$

NYZ005>009-017-018-044>046-055-056-301200-
CENTRAL


CITY           SKY/WX    TMP DP  RH WIND       PRES   REMARKS
FULTON         PTSUNNY   75  64  68 S10G20    30.04R
SYRACUSE       CLOUDY    74  65  73 S12       30.05R
ROME           CLOUDY    70  62  76 E6        30.10S
ELMIRA         CLOUDY    73  66  78 SW6       30.10R
BINGHAMTON     LGT RAIN  67  64  90 S12       30.15R
MONTICELLO     CLOUDY    63  61  94 CALM      30.22S
$$

NYZ026>034-041>043-301200-
NORTH


CITY           SKY/WX    TMP DP  RH WIND       PRES   REMARKS
WATERTOWN      MOSUNNY   75  63  66 S12G21    30.00R
FORT DRUM      NOT AVBL
MASSENA        SUNNY     75  62  64 SW14      29.96F
SARANAC LAKE   PTSUNNY   68  59  73 SW12      30.06S
PLATTSBURGH    PTSUNNY   65  58  78 SE10      30.02S
$$

NYZ001>004-010>016-019>021-301200-
WEST


CITY           SKY/WX    TMP DP  RH WIND       PRES   REMARKS
NIAGARA FALLS  PTSUNNY   70  63  78 S12       30.00R
BUFFALO        PTSUNNY   73  63  70 S15       30.02R
DUNKIRK        MOSUNNY   71  64  78 S16G28    30.03R
JAMESTOWN      MOSUNNY   64  61  88 S7        30.11S
WELLSVILLE     MOSUNNY   68  62  81 SW12G20   30.14S
ROCHESTER      PTSUNNY   73  64  73 SW13G21   30.02R
PENN YAN       PTSUNNY   73  64  73 S8        30.07S
$$

             KEY
       WCI = WIND CHILL INDEX
       VSB = VISIBILITY
       HX  = HEAT INDEX
$$



USA.gov is the U.S. government's official web portal to all federal, state and local government web resources and services.